Regional Weather Roundup
Issued by NWS Green Bay, WI

Home | Current Version | Previous Version | Text Only | Print | Product List | Glossary On
Versions: 1 2 3 4 5 6 7 8 9 10 11 12 13 14 15 16 17 18 19 20 21 22 23 24 25 26 27 28 29 30 31 32 33 34 35 36 37 38 39 40 41 42 43 44 45 46 47 48 49 50
000
ASUS43 KGRB 261500
RWRGRB

NORTH-CENTRAL AND NORTHEAST WISCONSIN REGIONAL WEATHER ROUNDUP
NATIONAL WEATHER SERVICE GREEN BAY WI
1000 AM CDT SUN MAR 26 2017

WIZ005-009-010>012-018-019-261600-
NORTH CENTRAL WISCONSIN

CITY           SKY/WX    TMP DP  RH WIND       PRES   REMARKS
IRONWOOD       CLOUDY    34  33  96 N3        29.97S
MANITOWISH WTR NOT AVBL
ARBOR VITAE    NOT AVBL
EAGLE RIVER    NOT AVBL
LAND O LAKES   NOT AVBL
RHINELANDER    LGT RAIN  34  33  96 NE5       29.93F FOG
PHILLIPS       NOT AVBL
ANTIGO         NOT AVBL
TOMAHAWK       NOT AVBL
MERRILL        NOT AVBL
$$

WIZ013-073-261600-
NORTHEAST WISCONSIN

CITY           SKY/WX    TMP DP  RH WIND       PRES   REMARKS
IRON MOUNTAIN  FOG       32  30  92 CALM      29.97S VSB 1/2
MARINETTE        N/A    N/A N/A N/A MISG        N/A
$$

WIZ017-030-035>037-045-261600-
CENTRAL WISCONSIN

CITY           SKY/WX    TMP DP  RH WIND       PRES   REMARKS
MEDFORD        NOT AVBL
WAUSAU         LGT RAIN  34  33  96 E6        29.92S FOG
MOSINEE        LGT RAIN  34  34 100 NE9       29.93S FOG
MARSHFIELD     LGT RAIN  34  33  96 NE8       29.90S FOG
WISC RAPIDS    CLOUDY    35  35 100 E9        29.92F
STEVENS POINT  NOT AVBL
WAUPACA        NOT AVBL
SHAWANO        NOT AVBL
CLINTONVILLE   NOT AVBL
WAUTOMA        CLOUDY    36  35  96 NE10      29.91F FOG
$$

WIZ038-039-048-051-261600-
FOX VALLEY

CITY           SKY/WX    TMP DP  RH WIND       PRES   REMARKS
NWS GREEN BAY  CLOUDY    36  36 100 NE13      29.95S FOG
APPLETON       FOG       36  36 100 NE10      29.91F VSB 1
OSHKOSH        FOG       37  36  96 NE9       29.91S VSB 3/4
FOND DU LAC    LGT RAIN  40  37  89 NE7       29.90F FOG
$$

WIZ022-050-052-261600-
EAST CENTRAL WISCONSIN

CITY           SKY/WX    TMP DP  RH WIND       PRES   REMARKS
EPHRAIM        NOT AVBL
WASHINGTON ISL NOT AVBL
STURGEON BAY   LGT RAIN  36  36 100 NE7       29.97S FOG
MANITOWOC      NOT AVBL
SHEBOYGAN      LGT RAIN  39  37  92 NE9       29.91F FOG
$$

LMZ563-521-522-541>543-261600-
LAKESHORE

STATION/POSITION TIME  TEMP    WIND        PRES    VSBY  WAVE
                       AIR SEA DIR/SP/G                  HT/PER
                 (UTC) (F)     (DEG/KT/KT) (MB)    (MI)  (FT/S)
SHEBOYGAN LKSHOR 1400   37      30/  9/ 10 1013.9F
KEWAUNEE LKSHORE 1430   36      50/  6/  9 1013.9F
NORTHPORT PIER   1440   34      70/ 10/ 13 1015.2F
CHAMBERS ISLAND  1440   34      60/  7/ 10 1014.9F
MENOMINEE LKSHOR 1430   33      10/  7/  9 1014.2F
$$



USA.gov is the U.S. government's official web portal to all federal, state and local government web resources and services.